Location: Colleton State Park
(33.0623°N, 80.6164°W)
Time: 00:11:26
(UTC-04:00)

Hubble Space Telescope - Pass Details

Date: 21 May 2019
Orbit: 536 x 540 km, 28.5° (Epoch: 16 June)

Event Time Altitude Azimuth Distance (km) Brightness Sun altitude
Rises 21:09:08 0° 259° (WSW) 2,671 5.1 -10.0°
Reaches altitude 10° 21:12:43 10° 227° (SW) 1,777 3.6 -10.6°
Maximum altitude 21:14:15 12° 205° (SSW) 1,660 3.2 -10.9°
Drops below altitude 10° 21:15:48 10° 182° (S) 1,774 3.1 -11.2°
Enters shadow 21:16:54 - 169° (S) 1,979 3.2 -11.4°
